When you browse on this site, cookies collect data to enhance your experience and personalize the content and advertising you see.
Visit our Privacy Policy to learn more. By continuing to use the site, you agree to this use of cookies and data.
  • In Hungary
  • List of Countries
  • For 7 days
  • Water Temperature
  • Satellite Maps
  • Weather Map
  • News
  • Weather Widgets
  • user-avatar
    Login

    Hourly Weather Babaojo

    Today, 13 December, Thursday

    Time Temperature Precipitation Wind Pressure Humidity
    00:00 +28°C° 0.8 mm 1 mps 760 mmHg 85%
    01:00 +28°C° 0.8 mm 1 mps 760 mmHg 86%
    02:00 +28°C° 0.4 mm 1 mps 760 mmHg 87%
    03:00 +27°C° 0.4 mm 1 mps 760 mmHg 87%
    04:00 +27°C° 0.4 mm 1 mps 760 mmHg 88%
    05:00 +27°C° 0.3 mm 1 mps 760 mmHg 88%
    06:00 +27°C° 0.3 mm 1 mps 760 mmHg 88%
    07:00 +27°C° 0.3 mm 1 mps 760 mmHg 88%
    08:00 +28°C° 0.2 mm 1 mps 761 mmHg 84%
    09:00 +29°C° 0.2 mm 1 mps 761 mmHg 81%
    10:00 +30°C° 0.2 mm 1 mps 761 mmHg 78%
    11:00 +31°C° 0.1 mm 1 mps 760 mmHg 73%
    12:00 +32°C° 0.1 mm 1 mps 760 mmHg 69%
    13:00 +34°C° 0.1 mm 1 mps 759 mmHg 64%
    14:00 +33°C° 2.1 mm 1 mps 759 mmHg 66%
    15:00 +33°C° 2.1 mm 1 mps 758 mmHg 67%
    16:00 +33°C° 2.1 mm 1 mps 758 mmHg 68%
    17:00 +32°C° 2.7 mm 2 mps 758 mmHg 73%
    18:00 +31°C° 2.7 mm 2 mps 759 mmHg 77%
    19:00 +29°C° 2.7 mm 2 mps 759 mmHg 82%
    20:00 +29°C° 2.9 mm 2 mps 760 mmHg 84%
    21:00 +28°C° 2.9 mm 2 mps 760 mmHg 86%
    22:00 +28°C° 2.9 mm 2 mps 761 mmHg 88%
    23:00 +28°C° 1.8 mm 1 mps 761 mmHg 89%

    Tomorrow, 14 December, Friday

    Time Temperature Precipitation Wind Pressure Humidity
    00:00 +27°C° 1.8 mm 1 mps 761 mmHg 90%
    01:00 +27°C° 1.8 mm 1 mps 760 mmHg 90%
    02:00 +27°C° 1.3 mm 1 mps 760 mmHg 91%
    03:00 +27°C° 1.3 mm 1 mps 760 mmHg 91%
    04:00 +27°C° 1.3 mm 1 mps 760 mmHg 91%
    05:00 +27°C° 0.6 mm 1 mps 760 mmHg 91%
    06:00 +27°C° 0.6 mm 1 mps 760 mmHg 90%
    07:00 +27°C° 0.6 mm 1 mps 761 mmHg 90%
    08:00 +27°C° 0.1 mm 1 mps 761 mmHg 87%
    09:00 +28°C° 0.1 mm 1 mps 761 mmHg 85%
    10:00 +29°C° 0.1 mm 1 mps 761 mmHg 82%
    11:00 +29°C° 0.1 mm 1 mps 761 mmHg 80%
    12:00 +30°C° 0.1 mm 1 mps 760 mmHg 78%
    13:00 +30°C° 0.1 mm 1 mps 759 mmHg 76%
    14:00 +30°C° 0.2 mm 1 mps 759 mmHg 76%
    15:00 +30°C° 0.2 mm 1 mps 758 mmHg 76%
    16:00 +30°C° 0.2 mm 1 mps 758 mmHg 76%
    17:00 +30°C° 0.3 mm 1 mps 759 mmHg 79%
    18:00 +29°C° 0.3 mm 1 mps 759 mmHg 82%
    19:00 +28°C° 0.3 mm 1 mps 759 mmHg 85%
    20:00 +28°C° 0.1 mm 1 mps 760 mmHg 86%
    21:00 +28°C° 0.1 mm 1 mps 761 mmHg 86%
    22:00 +28°C° 0.1 mm 1 mps 762 mmHg 87%
    23:00 +27°C° 0.2 mm 1 mps 761 mmHg 88%

    Day after tomorrow, 15 December, Saturday

    Time Temperature Precipitation Wind Pressure Humidity
    00:00 +27°C° 0.2 mm 1 mps 761 mmHg 89%
    01:00 +27°C° 0.2 mm 1 mps 761 mmHg 90%
    02:00 +27°C° 0.2 mm 1 mps 760 mmHg 90%
    03:00 +27°C° 0.2 mm 1 mps 760 mmHg 91%
    04:00 +27°C° 0.2 mm 1 mps 760 mmHg 91%
    05:00 +27°C° 0.2 mm 1 mps 760 mmHg 91%
    06:00 +27°C° 0.2 mm 1 mps 760 mmHg 90%
    07:00 +27°C° 0.2 mm 1 mps 760 mmHg 90%
    08:00 +28°C° 0.3 mm 1 mps 761 mmHg 86%
    09:00 +29°C° 0.3 mm 1 mps 761 mmHg 82%
    10:00 +30°C° 0.3 mm 1 mps 761 mmHg 78%
    11:00 +31°C° 0.4 mm 1 mps 760 mmHg 74%
    12:00 +32°C° 0.4 mm 1 mps 760 mmHg 70%
    13:00 +33°C° 0.4 mm 1 mps 759 mmHg 66%
    14:00 +33°C° 0.8 mm 1 mps 758 mmHg 67%
    15:00 +33°C° 0.8 mm 1 mps 758 mmHg 67%
    16:00 +32°C° 0.8 mm 1 mps 757 mmHg 68%
    17:00 +32°C° 0.9 mm 1 mps 758 mmHg 72%
    18:00 +31°C° 0.9 mm 1 mps 758 mmHg 77%
    19:00 +30°C° 0.9 mm 1 mps 759 mmHg 81%
    20:00 +29°C° 0.8 mm 1 mps 760 mmHg 82%
    21:00 +29°C° 0.8 mm 1 mps 760 mmHg 84%
    22:00 +28°C° 0.8 mm 1 mps 761 mmHg 85%
    23:00 +28°C° 0.8 mm 2 mps 761 mmHg 86%

    16 December, Sunday

    Time Temperature Precipitation Wind Pressure Humidity
    00:00 +28°C° 0.8 mm 2 mps 761 mmHg 88%
    01:00 +27°C° 0.8 mm 2 mps 761 mmHg 90%
    02:00 +27°C° 0.4 mm 1 mps 760 mmHg 90%
    03:00 +27°C° 0.4 mm 1 mps 760 mmHg 90%
    04:00 +27°C° 0.4 mm 1 mps 760 mmHg 91%
    05:00 +27°C° 0.1 mm 1 mps 760 mmHg 90%
    06:00 +27°C° 0.1 mm 1 mps 760 mmHg 90%
    07:00 +27°C° 0.1 mm 1 mps 761 mmHg 89%
    08:00 +28°C° 0 mm 1 mps 761 mmHg 84%
    09:00 +29°C° 0 mm 1 mps 761 mmHg 79%
    10:00 +30°C° 0 mm 1 mps 761 mmHg 74%
    11:00 +32°C° 0.1 mm 1 mps 760 mmHg 70%
    12:00 +33°C° 0.1 mm 1 mps 760 mmHg 65%
    13:00 +34°C° 0.1 mm 1 mps 759 mmHg 61%
    14:00 +34°C° 0.8 mm 1 mps 758 mmHg 63%
    15:00 +33°C° 0.8 mm 1 mps 758 mmHg 65%
    16:00 +34°C° 0.8 mm 2 mps 757 mmHg 66%
    17:00 +32°C° 1.7 mm 2 mps 758 mmHg 71%
    18:00 +31°C° 1.7 mm 2 mps 759 mmHg 76%
    19:00 +30°C° 1.7 mm 2 mps 759 mmHg 81%
    20:00 +29°C° 2.3 mm 2 mps 760 mmHg 83%
    21:00 +29°C° 2.3 mm 2 mps 761 mmHg 85%
    22:00 +28°C° 2.3 mm 2 mps 761 mmHg 87%
    23:00 +28°C° 2 mm 1 mps 761 mmHg 88%

    17 December, Monday

    Time Temperature Precipitation Wind Pressure Humidity
    00:00 +27°C° 2 mm 1 mps 761 mmHg 89%
    01:00 +27°C° 2 mm 1 mps 760 mmHg 91%
    02:00 +27°C° 1.7 mm 1 mps 760 mmHg 91%
    03:00 +27°C° 1.7 mm 1 mps 760 mmHg 92%
    04:00 +24°C° 1.7 mm 0 mps 760 mmHg 92%
    05:00 +25°C° 0.2 mm 0 mps 760 mmHg 91%
    06:00 +25°C° 0.2 mm 0 mps 760 mmHg 90%
    07:00 +25°C° 0.2 mm 0 mps 761 mmHg 89%
    08:00 +26°C° 0 mm 0 mps 761 mmHg 85%
    09:00 +29°C° 0 mm 1 mps 761 mmHg 81%
    10:00 +30°C° 0 mm 1 mps 761 mmHg 76%
    11:00 +31°C° 0.2 mm 1 mps 760 mmHg 73%
    12:00 +32°C° 0.2 mm 1 mps 759 mmHg 69%
    13:00 +33°C° 0.2 mm 1 mps 759 mmHg 65%
    14:00 +33°C° 0.9 mm 1 mps 758 mmHg 66%
    15:00 +33°C° 0.9 mm 1 mps 758 mmHg 67%
    16:00 +33°C° 0.9 mm 1 mps 757 mmHg 68%
    17:00 +32°C° 1.1 mm 1 mps 758 mmHg 72%
    18:00 +31°C° 1.1 mm 1 mps 758 mmHg 76%
    19:00 +30°C° 1.1 mm 1 mps 759 mmHg 80%
    20:00 +29°C° 1.1 mm 1 mps 760 mmHg 81%
    21:00 +29°C° 1.1 mm 1 mps 760 mmHg 82%
    22:00 +29°C° 1.1 mm 1 mps 761 mmHg 84%
    23:00 +28°C° 1.1 mm 1 mps 760 mmHg 86%

    18 December, Tuesday

    Time Temperature Precipitation Wind Pressure Humidity
    00:00 +28°C° 1.1 mm 1 mps 760 mmHg 88%
    01:00 +27°C° 1.1 mm 1 mps 760 mmHg 90%
    02:00 +27°C° 1.2 mm 1 mps 759 mmHg 91%
    03:00 +27°C° 1.2 mm 1 mps 759 mmHg 92%
    04:00 +25°C° 1.2 mm 0 mps 759 mmHg 92%
    05:00 +27°C° 0.5 mm 1 mps 759 mmHg 92%
    06:00 +27°C° 0.5 mm 1 mps 759 mmHg 92%
    07:00 +27°C° 0.5 mm 1 mps 760 mmHg 91%
    08:00 +27°C° 0.2 mm 1 mps 760 mmHg 89%
    09:00 +28°C° 0.2 mm 1 mps 760 mmHg 87%
    10:00 +29°C° 0.2 mm 1 mps 760 mmHg 84%
    11:00 +29°C° 0.2 mm 1 mps 759 mmHg 82%
    12:00 +30°C° 0.2 mm 1 mps 759 mmHg 80%
    13:00 +30°C° 0.2 mm 1 mps 758 mmHg 77%
    14:00 +31°C° 0.8 mm 1 mps 757 mmHg 76%
    15:00 +31°C° 0.8 mm 1 mps 757 mmHg 75%
    16:00 +31°C° 0.8 mm 1 mps 757 mmHg 74%
    17:00 +30°C° 1.6 mm 1 mps 757 mmHg 78%
    18:00 +30°C° 1.6 mm 1 mps 758 mmHg 82%
    19:00 +29°C° 1.6 mm 1 mps 759 mmHg 86%
    20:00 +28°C° 1.2 mm 1 mps 759 mmHg 87%
    21:00 +28°C° 1.2 mm 1 mps 760 mmHg 87%
    22:00 +28°C° 1.2 mm 1 mps 760 mmHg 88%
    23:00 +27°C° 0.5 mm 1 mps 760 mmHg 89%
    Show more